Location: Bucharest
(44.4268°N, 26.1025°E)
Time: 15:37:19
(UTC+02:00)

METEOR 1-16 DEB - Visible Passes

Search period start: 08 December 2022 00:00
Search period end: 18 December 2022 00:00
Orbit: 801 x 851 km, 81.2° (Epoch: 07 December)

Date Brightness Start Highest point End Pass type
(mag) Time Alt. Az. Time Alt. Az. Time Alt. Az.
11 Dec ? 19:22:47 10° N 19:23:02 11° N 19:23:02 11° N visible
12 Dec ? 19:03:30 10° N 19:04:35 16° N 19:04:35 16° N visible
13 Dec ? 18:44:15 10° N 18:46:24 23° NNE 18:46:24 23° NNE visible
13 Dec ? 20:27:09 10° NW 20:27:59 14° NW 20:27:59 14° NW visible
14 Dec ? 18:25:04 10° N 18:28:49 31° NE 18:28:49 31° NE visible
14 Dec ? 20:07:32 10° NNW 20:10:28 26° NW 20:10:28 26° NW visible
15 Dec ? 18:05:54 10° N 18:10:32 28° ENE 18:15:10 10° SE visible
15 Dec ? 19:47:59 10° NNW 19:53:03 40° W 19:58:07 10° SSW visible
16 Dec ? 17:46:49 10° NNE 17:51:03 23° ENE 17:55:18 10° ESE visible
16 Dec ? 19:28:30 10° NNW 19:33:45 51° W 19:39:02 10° SSW visible
17 Dec ? 06:54:30 10° SE 06:58:31 22° E 07:02:33 10° NE visible
17 Dec ? 17:27:48 10° NNE 17:31:33 18° ENE 17:35:17 10° ESE visible
17 Dec ? 19:09:04 10° NNW 19:14:26 64° W 19:19:51 10° S visible
